Wind_Speed
53 55 57 58 59 61 62 62 63 65 67 68 69 68 67 66 62 57 50 45 41 37 36 34 32 30 29 30 31 32 32 33 33 34 35 37 39 41 45 48 49 51 53 55 58 61 64 67 71 74 76 80 83 85 87 91 93 91 86 83 80 76 71 67 67 66 64 63 57 55 54 49 48 46 42 41 39 40 38 35 32 30 31 30 30 30 36 41
52 55 57 58 59 61 62 63 63 65 67 68 68 68 67 65 62 57 51 45 40 35 33 32 30 29 28 28 27 29 30 31 31 32 34 36 38 40 43 45 48 50 52 54 57 59 61 65 69 72 75 79 82 84 87 90 93 91 86 84 81 77 73 68 66 66 67 64 58 55 50 48 50 46 44 43 40 39 38 37 34 32 32 31 32 33 38 42
52 54 56 58 59 60 62 63 64 65 67 68 68 68 66 65 62 57 51 46 41 36 33 30 28 28 27 27 26 27 28 28 28 29 30 33 35 37 39 43 46 48 51 53 55 57 59 62 66 71 74 78 81 83 86 89 92 91 85 83 81 79 75 68 66 64 65 64 60 57 50 48 50 47 47 48 47 44 41 39 35 33 34 35 37 39 41 43
52 54 56 58 59 60 62 63 64 66 67 67 68 68 67 65 63 57 50 44 40 37 33 30 28 27 27 27 27 27 27 27 27 26 27 29 31 33 36 40 44 46 49 52 54 56 58 60 64 69 72 76 80 82 85 87 91 90 84 82 84 83 76 68 65 62 62 61 58 58 53 49 48 47 48 49 49 46 43 39 34 36 39 39 40 41 42 42
52 54 56 58 59 60 61 63 64 66 66 67 67 67 66 65 63 57 49 42 39 36 33 31 29 29 28 27 28 28 27 26 27 26 25 27 29 31 34 37 42 44 46 50 53 55 56 58 62 67 70 75 79 81 84 86 89 89 83 82 86 84 77 70 64 60 61 58 56 56 54 52 48 45 45 42 40 41 40 37 35 37 39 40 41 40 38 39
51 54 56 57 59 59 61 62 64 65 66 66 67 66 65 64 62 57 49 42 38 36 33 31 30 30 29 27 27 27 26 25 26 26 26 26 28 30 31 34 39 41 42 48 52 54 55 57 60 65 69 74 77 80 83 85 87 86 82 83 86 84 79 72 63 60 59 57 56 54 53 54 49 46 44 38 38 39 37 35 35 37 41 43 43 40 38 38
51 53 55 57 58 59 60 62 63 64 65 65 66 66 65 64 61 55 48 42 38 36 33 31 30 30 31 29 28 27 26 25 25 26 26 26 28 29 30 32 35 37 39 45 50 52 54 55 59 64 68 72 76 79 81 83 85 83 80 83 85 82 80 72 63 59 58 56 56 55 54 54 50 49 47 44 46 43 37 36 38 42 45 45 43 41 41 40
51 53 55 56 57 58 59 61 62 63 64 64 65 65 64 63 59 53 46 41 38 36 33 31 29 28 29 30 29 27 26 26 25 25 25 25 26 27 29 30 31 33 36 42 47 51 53 54 59 63 66 70 74 78 79 80 83 81 79 83 83 80 78 71 62 59 56 56 56 55 56 57 53 48 48 50 52 47 42 42 43 45 46 44 42 41 40 39
51 52 54 56 57 57 58 60 61 62 63 63 64 64 63 62 58 52 46 41 37 34 32 30 28 27 29 30 29 28 27 27 26 25 24 24 23 23 26 26 27 30 33 38 44 48 51 53 57 60 64 67 71 75 76 78 81 79 80 83 80 78 76 67 62 60 56 56 55 53 55 58 54 48 50 53 50 47 46 45 45 45 43 41 39 38 38 36
51 52 54 56 56 56 57 58 60 61 62 62 62 62 61 60 56 50 45 40 36 33 32 32 31 31 32 33 31 30 29 28 27 25 23 22 20 20 21 22 23 27 30 34 40 45 48 51 54 57 62 65 70 72 74 78 80 79 80 79 75 75 72 64 64 63 58 56 54 53 55 55 52 48 51 51 44 44 45 44 45 43 40 37 37 37 36 35
52 52 53 55 56 55 55 57 58 60 61 61 61 61 60 58 54 50 45 39 34 33 35 36 36 35 35 34 32 30 30 28 26 23 21 19 17 16 16 17 19 23 27 31 36 41 44 47 50 55 59 64 69 71 73 78 79 79 77 73 71 71 67 62 65 65 61 59 56 54 54 52 51 50 51 46 40 42 44 45 45 41 38 36 36 35 34 34
53 52 53 55 55 55 54 55 57 58 59 59 59 59 58 56 53 49 44 37 34 36 38 39 39 38 36 35 33 30 28 26 23 21 19 16 13 12 12 12 14 18 23 27 32 36 39 43 48 53 58 64 69 70 73 79 79 78 75 69 67 65 63 60 60 62 60 58 55 53 53 52 51 52 51 44 39 43 47 49 46 41 38 36 35 34 33 33
53 52 52 54 55 55 54 54 55 57 58 58 57 57 56 54 52 49 43 36 35 36 38 39 40 39 36 34 32 29 27 25 22 19 17 14 10 7 6 6 9 13 18 23 28 33 37 41 47 51 57 63 68 69 75 80 79 77 73 68 64 61 60 58 55 55 53 51 51 50 51 52 50 49 47 41 41 46 49 47 42 38 36 35 35 33 33 33
52 52 52 53 54 54 53 52 53 55 56 56 56 56 55 52 50 48 42 35 34 35 37 39 40 39 35 32 29 27 26 24 21 18 15 11 8 4 2 1 4 10 15 21 26 31 35 40 45 49 54 62 66 70 77 81 78 75 72 66 62 59 58 56 53 51 48 47 45 44 48 50 47 45 44 42 43 45 44 39 35 35 34 33 33 32 33 33
52 52 51 53 53 53 53 51 51 53 55 55 54 54 53 50 47 46 41 34 32 34 36 39 40 38 34 31 29 28 27 24 21 17 13 9 6 7 8 7 6 9 15 21 25 30 34 38 43 47 53 61 66 72 79 80 76 73 69 63 60 58 56 53 51 49 48 48 44 42 45 46 43 42 43 44 42 40 37 35 34 33 32 32 32 32 33 34
51 51 51 52 52 52 52 51 50 51 53 53 53 52 50 48 45 43 41 36 32 32 35 38 38 36 35 34 33 32 30 26 22 19 15 11 8 10 13 12 10 11 15 19 24 29 33 37 41 46 53 61 67 74 79 77 72 70 66 60 59 58 56 54 51 50 49 49 47 44 43 41 38 39 40 41 37 34 34 35 35 33 31 32 33 34 35 36
51 51 50 51 52 51 51 50 49 49 50 51 51 49 48 46 43 42 41 36 32 30 33 35 33 33 37 38 37 36 34 30 26 23 20 17 15 16 17 17 15 14 15 18 21 26 31 35 39 45 53 61 67 74 78 75 68 66 62 59 59 57 57 57 52 51 49 48 49 46 43 39 35 36 38 37 34 33 34 34 34 32 32 33 35 36 37 37
50 50 50 51 51 50 50 49 48 47 48 49 50 48 45 44 42 40 39 36 32 29 31 31 27 30 35 36 33 32 31 31 30 27 25 24 25 24 22 22 20 18 18 18 20 24 30 35 41 46 53 60 67 73 77 74 65 61 59 58 60 59 58 57 52 49 49 48 48 47 46 45 40 39 39 38 33 32 33 32 32 32 33 35 36 37 38 38
50 50 49 50 50 50 49 48 47 47 46 46 48 47 44 42 40 38 37 36 31 27 27 27 22 24 29 30 28 25 24 26 27 27 27 28 29 28 27 26 24 22 21 22 23 26 30 36 42 47 52 57 65 70 72 71 62 56 57 57 60 62 59 55 51 48 47 48 48 47 49 49 45 43 41 39 35 33 36 36 35 37 38 38 39 40 41 41
50 50 49 49 50 49 47 47 46 46 45 44 45 46 43 41 39 37 36 35 31 25 23 23 19 18 22 23 22 20 19 20 22 22 22 24 26 26 25 25 25 23 22 23 24 27 30 35 40 44 48 54 60 64 65 65 60 54 55 57 58 60 59 56 52 48 47 48 48 45 46 46 43 41 39 39 38 38 40 40 41 42 42 43 43 44 44 44
50 50 49 49 49 48 46 45 45 45 44 42 43 44 43 39 37 36 34 33 31 26 20 18 17 14 15 17 18 17 16 16 16 17 18 20 22 21 20 20 22 23 23 25 26 28 30 33 37 40 44 48 53 56 57 56 55 53 54 56 57 56 55 54 52 49 47 48 47 43 43 45 45 43 42 43 42 40 41 42 44 45 44 45 46 46 45 44
51 50 49 49 49 48 45 44 44 44 43 41 40 42 42 40 36 34 33 31 29 26 20 14 14 13 11 12 15 14 13 12 13 13 13 16 19 18 15 14 14 18 24 29 31 32 34 34 36 39 42 45 48 49 50 50 52 53 53 55 56 52 50 50 51 49 46 44 45 45 47 51 50 46 46 47 45 43 43 44 46 48 47 46 46 45 44 42
51 49 49 49 49 48 45 43 42 42 41 41 39 40 41 40 36 33 32 30 28 26 21 14 11 11 9 8 10 11 11 10 11 12 11 11 17 17 14 12 10 12 18 27 35 37 37 34 34 37 40 43 46 47 47 47 48 50 51 51 52 50 48 48 49 48 44 42 44 45 46 48 48 45 44 45 44 44 44 43 45 46 45 44 43 42 42 41
51 49 49 49 48 47 45 43 41 39 39 40 40 38 39 39 37 33 31 29 27 25 22 17 10 9 8 7 6 7 7 8 10 10 11 7 11 16 16 14 12 12 12 20 34 39 35 31 30 32 33 37 40 42 44 45 45 45 45 45 46 48 48 46 45 45 43 42 42 43 43 43 45 45 44 44 42 41 42 41 41 41 41 40 39 39 40 41
52 51 50 50 48 46 45 44 41 38 38 39 40 39 37 38 38 35 30 28 26 23 21 18 13 10 8 7 5 3 4 6 8 7 7 5 6 12 17 17 16 17 17 20 30 35 32 31 29 28 29 31 33 36 39 42 43 43 43 42 42 44 44 43 43 43 44 43 43 43 42 43 46 47 48 47 44 43 43 42 41 39 38 38 39 40 42 44
52 51 51 50 48 46 45 44 41 39 38 37 38 39 38 36 37 36 32 28 25 22 21 18 15 13 11 9 7 4 1 2 5 4 3 2 3 9 14 18 18 19 20 21 25 30 33 33 30 28 29 30 31 33 36 38 40 42 43 43 41 40 39 40 42 43 45 47 47 45 42 43 45 47 48 47 45 45 45 43 43 42 41 41 43 45 47 49
51 51 53 51 49 47 45 44 43 40 38 36 36 37 39 37 36 36 34 30 25 22 22 20 17 16 14 12 10 7 6 5 2 1 3 5 4 7 11 15 19 21 21 22 22 25 32 35 32 32 32 31 32 34 35 37 38 38 40 42 42 41 40 41 42 44 45 45 45 44 43 41 41 44 47 47 45 46 46 44 45 47 46 46 47 50 52 52
51 53 54 51 49 48 46 43 43 41 39 37 36 35 38 39 37 36 36 33 28 24 22 20 19 18 17 15 13 11 11 11 8 4 5 7 8 9 10 11 15 19 21 23 23 26 31 34 35 35 34 34 35 35 36 38 39 38 38 41 43 44 45 45 43 44 45 42 41 42 43 41 39 44 49 48 47 49 49 48 49 51 50 49 51 54 54 54
53 54 55 53 50 49 47 43 42 42 40 38 36 34 35 38 37 37 37 36 32 28 24 21 19 19 18 18 16 15 16 16 14 12 9 8 9 12 13 12 13 16 18 21 24 28 31 34 36 36 36 37 38 37 37 39 41 42 42 43 44 46 47 47 45 44 43 41 41 43 44 43 41 45 50 48 47 49 49 51 53 53 52 52 54 55 56 57
55 56 56 54 52 51 48 44 42 42 41 39 36 34 33 35 36 36 36 37 35 31 28 24 21 19 17 18 18 18 18 17 17 18 16 13 12 13 14 15 16 16 18 19 22 26 31 34 36 38 39 40 41 41 42 42 43 44 46 48 48 47 46 47 47 45 43 41 43 45 46 46 45 49 53 49 49 49 48 50 54 53 52 54 56 57 58 59
57 58 58 56 55 54 51 47 44 42 41 40 38 36 33 33 35 35 35 36 36 35 32 29 25 21 18 17 17 19 19 18 17 19 20 20 18 17 17 18 18 18 20 21 22 24 28 33 37 39 39 39 40 41 42 43 43 44 48 52 53 50 48 48 49 49 46 45 47 47 48 49 48 52 54 52 52 52 51 53 55 54 54 57 58 58 57 57
57 58 58 58 58 58 54 49 46 42 41 41 40 39 36 34 34 34 34 35 36 36 35 32 29 26 22 19 17 17 18 19 19 19 20 22 22 21 21 22 23 23 23 24 24 24 26 30 34 37 39 41 42 42 43 44 44 44 46 50 53 53 51 51 53 53 51 51 51 51 51 52 53 56 57 56 55 54 55 57 56 56 56 56 56 55 55 55
57 57 59 60 59 58 55 52 49 44 42 41 41 40 40 39 36 33 34 36 35 36 36 35 32 28 26 24 21 18 17 18 20 20 19 21 22 22 22 23 25 27 27 28 28 28 29 29 30 33 36 38 40 42 43 45 45 45 45 46 48 50 51 52 53 53 53 55 56 56 56 57 59 61 62 61 60 58 58 57 57 57 55 53 52 53 56 57
56 58 60 61 58 55 53 52 51 47 43 42 42 40 41 43 40 34 34 36 36 36 36 36 34 31 28 27 25 23 20 18 18 20 21 21 22 22 22 22 23 26 27 29 30 32 32 32 32 33 34 36 37 39 40 42 43 44 44 45 46 48 51 51 51 52 54 56 56 58 59 60 60 61 62 62 61 60 58 57 56 54 52 52 53 54 56 56
57 59 61 60 55 52 52 52 52 50 46 43 42 42 44 46 42 36 35 36 37 37 36 36 36 34 31 28 27 26 25 22 19 19 20 21 23 25 25 23 23 24 25 26 27 30 32 35 36 37 37 38 38 38 40 42 42 43 44 45 47 50 51 50 51 53 54 55 56 58 59 59 60 61 62 62 61 59 58 57 55 52 52 53 54 53 52 51
59 60 62 60 56 53 53 52 52 51 49 44 41 43 47 47 43 39 38 37 36 37 37 35 36 36 34 31 28 27 27 27 24 22 21 21 23 25 27 27 26 26 26 27 27 27 29 32 34 37 40 42 42 41 41 41 41 42 45 47 49 50 50 50 51 53 55 56 56 58 58 60 61 62 62 63 60 58 56 56 54 53 53 52 51 50 49 48
61 62 64 63 60 57 55 55 55 53 51 45 41 46 52 50 45 43 42 38 36 37 37 36 36 36 36 35 32 29 28 29 28 27 26 24 24 25 26 28 29 29 29 30 31 31 30 30 31 32 34 38 42 45 46 46 46 46 47 48 49 50 50 51 52 53 55 55 55 57 59 62 63 63 64 63 59 55 55 56 55 54 52 50 49 47 46 45
64 65 66 67 66 62 60 59 57 54 51 45 42 49 55 52 49 46 42 38 37 37 37 37 37 36 37 37 36 33 30 30 30 29 29 28 28 27 26 27 28 30 32 33 35 36 35 34 34 33 32 33 36 40 44 46 47 48 49 51 52 53 54 53 51 51 53 53 53 54 55 59 61 61 62 60 54 52 55 58 56 54 51 48 47 45 43 41
67 67 69 70 69 66 64 63 59 56 51 45 45 51 55 54 51 47 43 40 40 39 39 40 40 38 38 38 38 38 35 32 31 31 31 31 31 29 28 29 29 29 31 32 35 38 39 38 39 38 37 36 36 38 39 40 42 43 45 48 51 51 50 49 48 47 46 46 46 46 50 57 57 55 54 53 52 52 56 58 56 54 51 47 45 43 41 40
71 70 71 73 71 68 68 66 62 57 50 45 47 52 55 57 55 50 46 44 43 43 43 44 42 39 38 38 38 39 39 36 34 33 34 34 34 32 30 30 31 31 31 31 33 35 37 39 42 43 42 42 42 42 41 41 41 42 43 46 47 47 47 46 45 45 44 42 42 43 50 60 58 53 53 54 53 54 54 56 55 53 50 47 45 44 42 41
75 72 72 74 72 70 70 69 65 60 52 47 49 52 56 59 59 54 49 45 45 45 45 45 43 41 40 40 39 38 39 40 39 36 35 36 36 35 33 33 32 32 32 33 34 34 34 35 37 40 43 45 46 46 45 46 46 46 47 48 49 49 48 47 46 47 46 45 45 45 51 60 60 55 55 54 53 52 51 52 52 51 49 47 46 45 43 42
78 75 74 76 75 72 72 70 66 63 57 51 50 54 57 60 61 58 53 49 47 48 46 45 45 43 42 41 41 38 37 39 41 40 38 38 38 37 36 36 35 33 32 33 34 34 34 35 36 38 40 42 44 46 47 48 50 50 50 51 52 51 50 50 48 49 49 48 48 47 49 59 61 56 54 53 52 51 50 50 51 49 48 46 46 46 43 42
80 79 79 80 79 77 76 72 68 65 59 52 52 55 58 60 61 60 58 54 51 50 49 47 47 47 45 44 44 42 39 39 42 43 43 42 41 40 39 38 37 36 35 34 34 34 33 34 37 39 40 42 43 43 44 45 46 47 48 49 50 49 50 50 48 49 49 47 49 49 47 57 63 56 53 52 50 51 51 51 51 48 46 46 46 44 43 43
82 83 83 83 83 82 79 74 71 67 61 56 55 56 57 60 61 61 61 59 54 52 50 48 48 50 50 50 48 45 44 43 43 44 46 46 46 45 42 40 40 39 38 37 36 35 33 33 35 37 39 42 44 44 44 44 44 44 45 45 45 46 46 46 45 46 43 43 49 46 42 55 65 57 53 53 50 51 53 53 51 48 47 47 46 45 45 46
86 86 85 85 85 83 80 76 73 70 66 62 59 58 58 59 60 62 63 61 57 54 51 50 51 52 52 53 51 49 48 46 44 44 45 48 49 49 46 43 42 42 41 39 38 37 35 34 36 38 38 40 44 45 44 44 44 44 45 46 46 45 45 44 44 42 40 44 48 43 41 55 65 60 56 55 53 54 56 55 52 50 49 48 48 49 49 49
90 88 86 86 86 84 81 78 76 73 69 67 63 60 60 60 61 64 65 62 59 56 53 51 51 52 53 54 53 51 50 49 46 45 47 49 49 49 49 47 44 43 42 41 41 40 38 37 38 40 40 41 44 44 43 43 42 42 43 45 45 45 45 45 43 43 47 49 46 45 51 56 61 65 63 59 57 58 59 58 55 52 51 52 53 53 53 52
91 90 88 89 90 88 84 82 79 75 73 71 66 62 62 63 64 66 66 63 61 60 58 55 53 54 56 57 56 53 53 52 50 49 50 52 51 50 50 50 48 45 44 44 43 43 41 41 42 43 42 43 45 44 43 43 42 41 42 42 43 44 43 42 40 44 50 48 43 51 58 54 55 65 66 63 61 59 57 57 54 52 52 51 51 50 50 50
91 91 90 92 92 90 86 83 80 77 76 75 70 64 62 63 65 67 67 67 65 64 63 59 56 57 59 60 58 56 56 57 55 53 54 54 53 50 48 50 50 47 46 46 46 46 44 43 46 47 44 44 46 46 44 43 43 43 43 43 44 44 42 41 41 44 47 44 41 49 51 46 48 56 59 61 60 55 51 51 50 48 48 46 45 44 45 46
93 93 93 94 93 91 87 84 82 79 77 77 74 67 62 63 64 65 68 71 70 67 65 60 57 61 64 63 60 59 59 61 59 57 57 56 56 54 50 49 50 51 51 49 46 47 46 45 48 50 47 46 49 49 47 44 42 42 42 43 43 43 44 44 45 46 47 44 42 45 46 44 47 51 55 58 58 54 51 50 49 47 46 45 45 45 46 45
96 96 97 97 95 91 89 87 85 82 78 78 74 68 65 65 65 66 68 69 68 69 69 65 64 68 70 67 63 60 59 61 60 59 61 61 59 59 56 51 49 49 52 52 50 49 48 47 50 52 49 48 52 53 51 47 45 42 40 41 41 42 46 47 47 47 47 44 44 46 44 44 50 55 55 55 57 57 55 52 49 48 48 47 47 47 46 44
100 99 100 101 97 93 91 89 87 86 82 78 73 70 72 71 69 72 73 72 72 74 74 73 74 75 74 68 63 61 63 66 66 66 68 66 62 60 59 57 53 50 50 53 53 53 53 50 51 53 51 48 53 56 54 52 49 42 38 41 45 47 49 49 48 48 48 47 47 46 43 45 52 56 53 53 55 56 54 52 49 49 49 48 46 46 44 42
102 101 101 102 100 97 95 92 91 89 83 77 73 74 76 74 74 77 77 74 75 77 77 77 78 78 77 71 65 66 72 74 71 70 70 69 66 63 61 59 57 54 53 53 54 56 58 55 54 55 52 49 53 56 55 55 50 39 37 45 52 52 52 51 49 49 51 51 49 46 45 49 52 53 52 54 55 54 51 51 50 50 51 49 46 45 44 43
Wind_Direction
327 328 330 331 332 332 333 332 333 335 334 333 333 335 338 339 339 337 336 333 330 326 319 314 310 306 299 292 286 282 278 275 273 269 266 261 255 250 246 243 240 238 234 232 229 227 223 220 219 218 216 215 214 213 210 208 207 208 210 212 211 212 216 219 222 224 227 228 223 222 223 227 234 237 239 242 242 240 238 237 240 247 250 252 253 257 264 266
329 329 330 332 333 334 334 334 334 336 336 335 336 338 340 341 341 339 337 335 334 331 325 320 316 311 305 298 291 285 280 278 276 273 270 265 262 256 250 246 241 238 235 232 229 227 223 220 218 217 215 214 214 212 210 207 207 207 208 211 210 212 215 217 220 222 226 228 223 222 225 229 233 237 242 243 244 241 237 239 245 252 255 259 263 266 265 264
330 330 332 333 334 335 335 335 336 337 337 337 338 340 342 343 342 340 338 336 336 334 331 326 321 315 310 306 300 294 289 285 280 275 271 267 264 260 255 249 243 238 235 232 229 227 223 219 217 216 214 214 213 211 209 207 206 206 207 210 210 212 215 216 219 220 223 226 225 223 225 229 232 239 245 244 245 245 243 246 250 255 259 263 266 267 264 263
331 331 332 334 336 336 336 336 337 338 338 338 340 342 344 345 343 341 339 338 337 336 334 331 327 322 317 313 308 303 299 296 289 280 273 268 263 260 256 252 245 239 234 231 229 226 223 219 216 215 213 212 212 210 209 206 206 206 206 209 211 212 213 215 218 218 221 224 225 225 224 226 231 237 240 238 240 242 244 248 252 257 260 262 265 266 262 259
332 332 333 335 336 338 338 337 338 340 340 340 342 343 345 346 344 342 341 340 340 339 337 335 332 326 320 315 312 309 306 301 295 287 278 272 266 258 254 252 249 241 234 231 228 225 222 218 215 214 213 211 210 209 208 205 205 205 205 210 212 212 212 214 216 218 221 222 223 225 223 225 232 233 232 233 236 238 242 248 252 257 260 260 265 265 257 255
332 333 334 335 337 339 339 338 339 340 341 341 343 345 346 347 345 343 342 342 342 342 340 339 336 329 324 320 317 315 311 305 300 295 287 281 275 266 257 251 250 245 235 229 227 224 221 217 214 213 211 210 208 207 207 204 203 203 205 211 212 211 213 214 215 217 220 220 221 222 220 224 229 229 228 232 238 240 243 249 256 260 260 261 263 260 254 257
331 332 334 336 338 339 339 339 339 341 342 342 344 346 348 348 346 344 344 343 344 344 343 343 340 335 332 330 327 323 318 311 306 300 295 289 281 273 264 255 249 245 236 228 224 222 220 217 213 211 210 208 207 206 205 203 201 202 206 211 211 211 213 214 215 217 218 217 219 221 221 223 226 228 230 236 243 247 249 254 260 262 260 259 258 256 256 260
330 332 333 335 337 340 340 340 340 342 343 343 345 347 349 350 348 346 346 345 347 347 348 348 346 343 342 339 333 329 324 316 313 307 301 293 283 274 266 258 249 242 234 227 222 220 219 215 213 210 208 207 205 205 203 200 200 201 206 210 210 211 213 214 215 216 216 215 218 220 221 223 226 231 235 240 245 249 254 256 258 261 259 256 254 254 258 262
328 330 332 334 336 339 341 341 341 342 344 345 346 348 350 351 350 349 348 348 351 352 355 355 351 351 351 347 340 335 330 326 324 319 310 300 290 277 267 259 249 240 232 226 220 218 217 214 212 209 207 206 204 204 201 198 198 200 206 209 209 211 212 213 215 215 214 214 217 220 221 224 228 235 241 243 246 249 254 255 255 257 256 252 252 255 261 265
327 329 331 333 336 339 341 341 342 343 344 345 347 349 352 353 352 351 350 352 354 357 1 1 358 358 357 352 346 341 337 335 332 325 317 309 298 283 270 260 247 237 229 223 218 216 214 213 211 208 206 203 203 203 198 195 196 199 206 209 208 210 211 212 213 213 214 215 218 221 223 225 229 237 243 244 245 248 250 250 251 254 250 249 254 259 263 267
325 327 329 332 334 338 341 342 342 343 345 346 347 350 353 355 354 352 352 354 357 2 7 7 4 2 358 353 350 345 342 339 335 330 324 316 304 290 276 261 246 234 226 220 215 213 211 210 208 205 204 201 201 200 195 193 195 199 205 207 207 209 210 211 213 214 216 219 221 226 228 228 230 236 243 243 243 246 248 249 251 251 248 251 258 262 265 266
323 325 328 330 333 337 341 342 342 343 345 347 348 351 355 357 356 354 354 356 3 9 12 11 8 4 358 352 351 350 347 345 340 337 333 325 317 300 281 263 244 230 224 217 211 208 206 206 204 202 200 198 198 197 192 191 193 198 204 206 206 207 208 210 213 214 217 221 225 229 232 232 231 235 241 241 242 245 246 248 251 250 250 254 258 261 264 266
322 324 326 329 331 335 339 342 343 344 345 347 348 351 356 358 357 355 355 0 9 14 13 12 9 5 359 354 354 355 354 351 348 345 343 340 335 318 291 263 237 220 213 209 203 200 200 201 200 199 198 196 195 192 189 190 192 197 202 204 204 204 206 209 211 213 216 220 224 228 229 231 232 235 241 241 242 245 246 247 248 248 251 255 258 261 264 267
321 322 325 328 330 333 338 342 344 344 345 347 348 351 357 359 357 355 357 4 13 16 14 13 11 7 4 1 2 6 5 1 359 356 352 351 356 8 41 126 204 198 194 193 192 192 193 195 196 196 194 193 192 189 187 189 192 197 201 203 202 201 205 208 209 210 211 215 220 225 227 230 232 235 239 240 242 244 244 244 246 249 254 257 259 261 265 269
320 321 324 326 328 332 336 341 344 344 345 347 349 351 357 359 356 355 357 3 11 16 16 15 12 11 14 15 17 20 18 14 11 5 0 6 32 71 84 95 137 168 176 179 181 184 187 189 191 192 190 189 188 186 187 189 192 197 201 202 199 200 203 206 208 209 208 211 214 221 228 231 229 231 237 239 240 241 240 243 248 253 257 259 259 261 266 269
319 319 322 325 327 330 334 339 343 344 344 347 349 351 356 359 356 354 356 1 10 16 19 19 18 24 30 31 33 34 31 30 28 25 25 31 53 82 90 93 111 139 157 168 174 178 181 184 186 186 186 186 186 185 187 189 192 198 201 199 198 199 201 204 209 210 210 212 213 219 228 230 228 231 235 236 237 240 243 247 253 256 258 259 261 263 266 268
318 318 320 323 326 328 332 336 341 345 345 346 349 351 355 359 357 354 355 1 9 15 20 23 30 40 41 39 41 43 41 41 43 47 50 56 66 77 88 95 102 119 139 155 165 172 176 177 179 180 182 183 184 184 187 189 192 198 201 199 198 198 200 203 209 213 213 216 218 224 232 231 230 233 234 235 239 244 247 251 256 258 260 261 264 265 266 267
317 317 318 321 324 326 329 334 338 344 345 344 347 350 353 357 358 353 354 360 6 14 24 29 39 48 45 40 40 43 45 47 50 56 61 66 71 75 82 88 95 107 123 137 151 163 168 170 171 175 179 182 183 185 189 190 193 198 201 201 200 201 203 205 210 215 216 220 223 228 236 236 235 237 237 241 244 246 249 254 260 263 263 263 263 264 266 269
316 316 317 319 322 325 327 331 335 341 344 344 345 349 351 355 359 354 352 357 1 11 27 35 42 50 47 40 38 41 50 59 59 60 65 71 75 78 81 84 89 97 112 126 139 151 159 164 167 172 177 181 183 186 190 192 193 198 201 203 204 206 208 209 213 218 220 223 226 230 237 239 237 237 239 244 248 251 254 258 264 267 266 264 263 264 268 271
315 315 315 316 319 323 325 328 332 337 343 344 343 347 349 353 358 356 351 353 357 3 23 35 37 47 48 41 41 45 52 62 66 65 68 73 79 84 88 92 95 99 109 122 133 144 153 160 165 169 174 180 185 188 191 194 196 199 202 205 207 210 213 215 218 222 224 226 227 232 236 235 236 239 242 247 249 253 257 260 264 266 266 265 265 266 269 272
312 313 313 314 316 321 323 325 329 334 340 343 343 344 347 350 355 358 353 351 353 357 10 28 31 34 44 43 44 49 54 57 61 66 68 73 78 83 91 97 104 111 117 123 130 138 145 153 160 165 172 179 185 188 192 195 199 202 205 207 211 213 216 218 220 223 225 227 228 233 238 239 242 246 248 250 250 253 257 261 264 266 266 266 266 266 269 272
309 310 311 311 313 318 321 322 325 330 336 341 343 342 345 348 351 356 356 351 350 353 357 16 29 23 26 39 36 38 51 55 50 49 55 73 82 81 84 90 103 120 127 132 134 138 143 149 158 164 171 177 182 188 192 196 201 205 207 210 214 216 218 219 220 221 225 229 229 233 239 243 246 247 248 249 249 252 256 260 264 266 265 265 265 267 269 271
306 309 310 310 311 315 318 319 322 327 332 337 341 342 341 345 348 351 355 354 348 349 351 356 20 24 13 22 28 27 37 42 38 31 28 68 95 93 89 88 93 113 132 142 143 145 149 153 161 169 173 179 183 188 193 197 202 206 210 215 218 219 217 217 218 220 225 231 232 233 239 243 244 244 246 246 246 250 254 258 262 263 263 265 266 269 269 270
304 308 309 308 308 312 315 316 318 323 329 332 336 340 340 340 344 347 351 354 349 345 346 346 354 11 1 355 10 22 27 17 11 18 20 50 109 114 112 113 115 122 133 150 154 153 153 158 165 173 180 186 190 194 197 200 204 208 212 216 218 218 217 217 218 221 225 231 235 236 239 243 244 244 246 246 247 251 254 258 260 261 263 266 268 270 269 269
301 304 306 306 306 308 312 314 315 319 324 328 332 337 339 338 340 344 346 350 351 345 342 341 337 340 338 331 332 350 29 20 0 0 12 31 117 133 131 129 134 145 149 159 166 163 160 163 168 175 184 191 196 201 204 205 208 211 213 215 216 218 221 223 223 224 228 234 239 240 240 244 246 247 250 251 251 254 256 258 260 260 263 266 269 271 270 270
298 300 302 304 304 305 308 311 312 314 318 324 328 331 336 338 336 339 342 344 348 347 342 338 327 322 324 314 299 283 286 16 9 348 326 355 135 160 157 147 146 157 164 172 179 178 173 172 175 180 186 192 196 203 207 207 210 214 216 217 218 220 224 229 230 231 233 237 241 242 240 244 248 250 252 253 252 253 254 256 260 261 264 268 270 271 273 274
293 296 298 301 302 302 304 307 309 311 313 317 323 327 331 334 334 334 336 338 341 343 342 339 326 317 318 307 289 272 262 263 285 316 272 263 223 195 184 173 169 171 178 184 191 194 189 186 189 190 192 197 200 204 207 207 210 215 218 220 222 222 225 228 229 230 232 234 238 239 237 240 251 256 255 252 252 253 254 257 263 265 268 272 273 273 275 276
289 292 294 296 299 300 300 303 306 308 308 310 316 322 325 329 331 331 331 333 335 336 338 338 331 322 316 306 289 273 270 266 254 236 233 244 243 229 217 208 197 191 193 195 197 202 202 202 203 201 201 206 207 208 212 213 213 214 217 220 222 223 225 226 226 227 228 230 235 239 236 236 249 262 262 257 256 256 257 260 266 268 270 273 274 274 275 275
287 289 291 293 295 297 298 299 302 305 305 306 310 315 320 323 327 328 327 328 331 332 331 331 331 327 319 312 299 280 275 272 258 242 231 231 238 237 232 235 231 219 215 213 209 209 212 214 214 214 216 218 216 215 218 221 220 218 217 219 221 223 225 226 227 228 229 233 241 244 240 237 245 259 264 264 264 264 263 264 266 270 272 273 273 274 275 275
285 286 288 289 291 293 295 296 298 301 302 303 304 309 314 317 321 325 326 325 327 329 327 323 324 326 321 316 307 295 286 278 260 247 241 238 238 237 235 237 240 235 229 226 221 218 220 221 220 222 225 226 226 225 226 228 230 228 225 223 225 226 228 230 231 234 236 241 250 252 248 245 248 256 261 264 266 268 268 268 270 273 274 274 275 275 275 276
283 285 286 286 287 289 292 293 294 297 299 300 301 304 309 312 315 321 322 321 323 325 324 321 319 320 320 316 310 302 294 284 268 254 248 245 242 239 239 239 239 236 232 229 227 224 225 226 226 226 228 229 229 230 230 230 232 232 230 228 228 231 234 236 237 239 243 249 254 256 255 254 256 259 261 263 265 267 268 270 273 273 274 274 275 275 275 275
280 282 283 284 284 285 288 290 291 293 295 296 297 299 303 304 309 316 317 317 321 322 320 319 318 315 314 314 313 305 295 286 277 267 256 249 245 243 245 245 243 240 237 234 230 228 229 230 229 229 230 231 232 234 235 236 236 236 235 232 231 234 238 239 240 242 247 251 254 255 258 260 260 260 262 263 265 267 268 270 271 272 272 273 274 275 276 276
277 279 282 282 281 281 283 286 288 290 292 294 294 295 298 297 300 308 310 312 317 319 317 315 315 314 310 309 309 308 302 291 281 274 265 253 245 243 244 245 245 243 243 241 236 232 231 231 230 231 232 234 236 238 240 242 242 242 241 240 240 242 241 240 242 246 249 251 252 253 256 258 260 261 262 263 264 266 267 268 270 271 270 269 271 274 276 277
274 277 280 279 277 278 280 283 286 287 288 291 292 294 293 291 294 301 302 305 311 315 314 312 311 311 309 306 305 304 303 297 288 279 271 259 245 239 240 243 243 243 244 244 242 239 236 233 232 232 232 235 237 239 240 242 243 243 244 245 247 248 246 245 248 251 251 249 251 253 254 256 259 261 262 263 264 265 266 268 270 270 269 270 271 273 275 277
272 276 276 275 274 276 278 280 284 285 286 287 290 292 288 285 290 294 294 298 304 309 311 309 308 308 307 305 302 300 300 298 294 285 276 267 254 244 242 243 243 242 242 243 244 243 240 239 238 237 236 236 237 239 240 241 242 243 244 245 247 249 250 250 252 254 253 252 252 255 256 257 258 260 261 261 262 264 267 269 269 268 269 272 273 275 276 277
270 272 272 272 273 275 277 279 281 283 284 285 289 289 284 283 286 288 289 293 298 302 306 307 306 305 305 304 301 298 296 295 295 291 283 274 264 256 250 247 246 243 241 241 243 244 243 241 241 242 241 241 240 241 242 242 244 244 244 244 247 250 251 251 251 253 255 255 255 257 258 258 259 260 260 261 262 265 268 268 267 268 271 273 274 275 276 276
267 268 269 270 272 274 276 277 280 282 283 285 287 285 283 283 284 285 288 290 291 296 300 303 304 303 302 301 300 297 293 291 291 291 289 283 274 266 258 253 250 247 244 242 242 244 244 244 243 242 242 242 241 243 245 246 248 249 248 248 249 250 252 253 254 255 256 256 257 259 260 261 261 261 261 262 263 265 266 266 268 271 272 274 275 275 275 275
264 264 266 268 270 272 273 276 278 279 281 284 285 282 281 282 283 285 286 286 288 292 293 296 301 302 300 298 297 296 293 288 286 286 286 285 281 275 268 262 257 253 249 246 245 245 244 246 247 245 244 243 241 242 244 246 248 250 251 251 252 252 254 256 256 256 257 257 257 259 261 261 261 261 262 262 262 262 265 267 270 271 271 272 274 274 274 274
262 262 264 266 268 269 271 274 276 277 280 282 279 277 279 281 281 283 283 282 285 289 289 291 295 297 296 296 295 294 293 290 286 284 282 280 280 279 277 272 266 260 255 250 249 248 247 248 249 248 247 246 245 242 242 244 246 248 250 251 252 252 253 254 254 254 254 254 254 256 260 261 260 261 262 262 262 263 266 269 270 269 268 270 272 272 272 273
261 262 263 265 266 267 268 271 274 275 277 276 272 274 278 279 279 280 280 281 283 285 286 287 289 290 292 294 294 292 293 291 286 283 280 278 277 278 278 277 272 268 263 258 255 252 251 250 250 250 249 248 248 246 245 246 246 247 249 250 251 251 251 252 253 254 253 254 254 255 261 264 263 262 264 264 265 265 266 268 268 267 267 269 271 271 271 272
261 262 263 264 264 265 266 270 272 273 273 272 272 274 276 277 278 278 279 279 280 282 283 284 284 284 286 292 293 290 290 290 288 284 280 277 276 276 276 276 275 273 270 266 262 259 256 254 253 253 252 250 250 250 249 250 250 249 251 252 252 252 253 253 254 255 256 256 256 256 261 266 266 264 264 265 266 266 266 266 266 266 268 269 270 270 270 271
259 260 261 262 263 264 266 270 271 270 272 273 271 270 272 274 276 277 278 278 279 279 279 280 281 281 283 288 290 289 287 288 288 285 281 278 276 275 273 272 273 274 274 271 269 265 262 260 258 257 257 254 253 252 251 252 253 253 254 255 256 256 257 257 256 257 257 258 258 257 260 267 267 265 266 266 266 266 266 266 266 267 269 270 270 270 271 272
257 257 258 260 262 263 266 269 269 269 271 269 264 264 268 272 274 276 277 277 277 277 277 277 279 281 283 284 286 287 286 285 285 283 281 281 279 276 272 271 271 272 273 274 273 270 267 264 262 260 260 260 258 255 254 253 254 256 257 257 257 258 258 258 257 258 258 260 261 258 260 268 268 266 267 267 267 268 268 267 267 268 269 270 270 272 272 273
256 256 257 259 261 263 266 267 267 267 267 264 262 262 264 268 272 274 275 275 276 276 276 276 278 282 284 285 285 283 281 282 281 279 280 281 280 279 276 273 271 270 270 271 272 272 270 269 268 265 263 262 262 259 257 257 256 258 259 259 259 258 258 258 258 257 258 261 263 261 262 269 271 269 269 269 269 270 270 270 270 270 270 270 271 273 272 271
255 256 257 258 260 262 264 265 264 264 264 262 261 261 260 263 268 270 272 273 274 274 274 275 278 281 283 284 283 279 277 279 278 277 280 280 280 281 279 276 273 270 268 268 270 272 271 272 272 270 267 265 265 263 262 261 259 259 261 262 261 260 260 260 260 260 260 262 265 266 264 268 273 274 272 271 271 271 271 271 271 271 271 272 272 271 270 269
254 255 256 258 259 261 262 262 261 261 262 261 259 258 257 259 262 265 268 270 273 273 272 273 276 279 280 280 277 275 275 276 276 276 278 279 280 280 279 278 276 273 271 269 269 269 269 270 271 270 269 268 267 267 266 266 264 263 263 264 265 265 264 263 263 263 263 262 265 268 265 265 272 276 274 272 270 270 271 272 272 272 272 272 271 270 270 270
253 254 255 257 258 259 259 260 260 259 259 259 258 257 256 257 258 261 264 268 270 270 270 271 274 276 276 274 273 272 273 276 277 276 274 277 279 280 279 279 277 276 274 271 268 267 266 268 269 269 270 270 270 270 270 269 269 268 268 269 269 268 267 268 267 266 265 264 263 265 264 265 270 274 275 274 271 270 272 274 275 274 273 272 272 272 272 271
253 254 254 255 257 258 258 259 259 257 255 256 257 256 256 257 258 260 263 265 266 267 269 271 272 273 272 271 271 272 274 277 279 276 273 275 277 279 279 279 277 275 273 272 271 268 266 267 268 268 269 271 272 271 269 269 270 270 271 271 271 271 272 271 270 268 266 264 262 264 267 268 269 271 275 275 274 273 273 274 275 275 275 275 275 275 273 272
253 254 254 255 256 257 258 257 256 255 255 255 255 255 256 257 258 259 260 262 264 266 266 267 267 269 269 269 270 273 276 278 277 275 273 273 276 279 279 278 276 275 274 273 272 269 268 267 267 267 267 269 271 270 269 269 269 269 270 271 273 276 276 272 269 267 267 267 265 266 268 270 269 269 271 274 277 278 276 274 274 275 276 275 274 273 273 273
254 253 254 254 254 256 256 256 256 255 254 254 255 255 255 255 256 257 258 260 262 262 263 264 264 266 267 267 268 271 274 273 271 271 272 273 276 279 281 280 278 276 275 274 271 269 269 267 267 266 266 267 269 269 269 268 268 268 270 273 276 277 274 272 271 270 270 270 268 266 267 270 270 268 269 273 277 278 278 278 278 277 276 275 274 273 273 274
254 253 254 254 254 254 254 255 255 255 254 255 256 257 255 254 254 254 256 257 259 261 262 264 265 265 266 266 266 267 268 267 267 269 272 275 275 276 278 280 280 278 276 275 273 271 270 268 266 265 265 266 266 267 268 268 266 267 272 276 276 273 270 270 272 273 273 271 269 269 270 269 268 269 271 273 274 275 279 281 281 280 278 276 276 276 276 276
254 254 254 254 254 253 253 253 253 253 254 255 256 255 254 254 254 254 254 256 258 261 262 264 264 264 265 267 267 265 264 264 266 268 272 275 275 275 275 277 279 279 277 277 276 273 271 269 266 265 265 264 264 265 266 266 266 272 277 274 270 269 270 270 271 273 274 272 272 272 271 269 269 272 273 273 272 274 277 280 281 281 279 278 278 279 279 278
Height
10732 10728 10724 10719 10714 10708 10702 10696 10690 10683 10676 10667 10659 10650 10641 10632 10624 10617 10611 10606 10601 10597 10593 10590 10588 10586 10584 10582 10581 10579 10578 10577 10577 10577 10577 10576 10576 10577 10577 10578 10581 10583 10587 10590 10593 10597 10602 10607 10612 10619 10625 10631 10638 10646 10654 10662 10670 10677 10689 10699 10707 10714 10719 10721 10724 10729 10730 10734 10747 10751 10753 10759 10760 10761 10763 10764 10767 10768 10770 10771 10772 10774 10775 10778 10781 10784 10782 10779
10729 10725 10721 10716 10711 10705 10699 10693 10687 10680 10673 10664 10656 10647 10639 10630 10622 10615 10609 10604 10600 10596 10591 10588 10585 10583 10581 10579 10577 10575 10574 10574 10573 10572 10571 10570 10570 10571 10571 10572 10575 10577 10580 10583 10586 10590 10595 10600 10606 10612 10619 10625 10632 10640 10648 10657 10665 10675 10687 10696 10704 10709 10712 10715 10719 10722 10724 10733 10745 10747 10751 10756 10756 10757 10760 10762 10764 10766 10767 10767 10770 10771 10773 10776 10778 10781 10778 10775
10726 10722 10718 10713 10708 10703 10696 10690 10684 10677 10670 10662 10653 10645 10636 10628 10620 10613 10607 10601 10597 10594 10590 10587 10584 10581 10578 10576 10574 10572 10571 10570 10568 10568 10566 10565 10565 10565 10565 10566 10568 10571 10573 10576 10580 10584 10589 10594 10600 10606 10612 10619 10626 10635 10643 10652 10662 10672 10683 10693 10700 10700 10704 10710 10714 10718 10722 10732 10741 10744 10750 10752 10753 10755 10758 10759 10761 10764 10763 10764 10768 10769 10771 10773 10774 10776 10774 10771
10724 10719 10715 10711 10706 10701 10694 10688 10681 10675 10667 10659 10651 10642 10634 10625 10618 10612 10606 10600 10595 10591 10588 10585 10582 10579 10576 10574 10572 10569 10568 10566 10564 10564 10563 10561 10560 10560 10560 10560 10561 10564 10567 10571 10574 10578 10583 10589 10594 10600 10607 10613 10621 10630 10638 10648 10658 10668 10680 10691 10691 10691 10700 10707 10710 10716 10721 10730 10737 10741 10747 10748 10750 10754 10754 10755 10758 10760 10759 10762 10766 10767 10769 10769 10770 10772 10770 10767
10721 10717 10713 10708 10704 10699 10692 10686 10679 10672 10665 10657 10649 10641 10632 10624 10617 10610 10604 10599 10595 10590 10586 10583 10580 10577 10574 10572 10569 10566 10565 10563 10560 10560 10559 10557 10556 10555 10555 10555 10556 10558 10561 10565 10568 10573 10578 10583 10589 10595 10601 10608 10616 10625 10634 10643 10653 10666 10679 10683 10681 10687 10697 10702 10707 10715 10720 10729 10734 10739 10744 10745 10748 10751 10750 10752 10754 10754 10755 10760 10764 10765 10766 10765 10766 10767 10765 10764
10719 10715 10711 10706 10702 10697 10691 10684 10678 10671 10663 10655 10648 10639 10631 10623 10616 10609 10603 10598 10593 10589 10585 10581 10578 10575 10572 10570 10567 10564 10562 10560 10558 10556 10554 10553 10552 10551 10551 10551 10551 10553 10556 10559 10563 10568 10572 10578 10584 10589 10596 10603 10611 10620 10629 10639 10651 10664 10673 10673 10676 10685 10693 10698 10706 10713 10719 10727 10731 10736 10740 10741 10745 10745 10746 10750 10748 10748 10754 10760 10762 10762 10761 10761 10762 10762 10761 10761
10717 10712 10709 10704 10700 10695 10689 10683 10677 10670 10662 10654 10647 10638 10630 10622 10616 10609 10603 10597 10592 10588 10584 10580 10577 10574 10570 10567 10564 10562 10559 10557 10555 10553 10551 10550 10548 10547 10546 10546 10546 10548 10550 10553 10557 10562 10568 10574 10579 10584 10591 10599 10607 10616 10625 10636 10650 10661 10665 10667 10674 10684 10691 10697 10705 10711 10718 10724 10728 10732 10735 10737 10740 10741 10745 10746 10741 10745 10755 10758 10759 10757 10756 10757 10758 10757 10758 10760
10714 10710 10707 10703 10699 10694 10688 10682 10676 10669 10662 10654 10646 10638 10629 10622 10616 10609 10603 10597 10593 10588 10584 10581 10578 10574 10571 10567 10563 10560 10557 10555 10553 10550 10548 10546 10544 10543 10541 10541 10542 10543 10545 10549 10553 10558 10563 10569 10574 10580 10587 10596 10604 10612 10623 10636 10647 10656 10660 10664 10673 10682 10689 10696 10705 10711 10716 10721 10724 10728 10731 10733 10735 10740 10743 10739 10738 10747 10754 10755 10755 10753 10752 10754 10753 10754 10756 10757
10712 10708 10705 10701 10697 10693 10688 10682 10675 10668 10661 10653 10646 10638 10630 10623 10616 10610 10604 10598 10594 10589 10585 10582 10578 10574 10570 10566 10562 10559 10555 10552 10550 10547 10544 10542 10540 10539 10538 10538 10538 10539 10542 10545 10549 10554 10559 10565 10571 10578 10586 10594 10603 10611 10622 10634 10645 10652 10656 10662 10673 10681 10688 10698 10706 10709 10713 10717 10720 10724 10727 10729 10734 10739 10736 10733 10741 10749 10749 10750 10751 10750 10749 10750 10750 10751 10753 10754
10710 10706 10703 10699 10695 10691 10687 10681 10675 10668 10661 10653 10646 10638 10631 10624 10617 10611 10605 10600 10595 10591 10587 10583 10578 10574 10569 10566 10562 10558 10554 10551 10548 10545 10542 10540 10538 10536 10535 10535 10536 10537 10539 10542 10546 10551 10557 10563 10570 10578 10585 10593 10603 10611 10622 10632 10641 10648 10653 10662 10673 10680 10688 10697 10702 10705 10710 10714 10717 10721 10724 10727 10734 10735 10729 10733 10744 10746 10744 10746 10747 10747 10746 10746 10747 10748 10749 10751
10708 10704 10701 10697 10694 10690 10686 10681 10674 10668 10661 10653 10647 10639 10632 10625 10619 10613 10607 10602 10597 10593 10588 10584 10579 10574 10570 10566 10562 10557 10553 10550 10547 10544 10541 10539 10537 10535 10534 10534 10534 10535 10537 10540 10544 10549 10555 10562 10569 10576 10583 10592 10600 10610 10621 10630 10638 10645 10653 10663 10672 10679 10688 10695 10698 10703 10707 10711 10715 10718 10722 10725 10731 10729 10725 10734 10742 10741 10741 10742 10743 10744 10743 10744 10744 10745 10746 10747
10705 10702 10699 10695 10692 10689 10685 10680 10674 10668 10661 10654 10647 10640 10633 10627 10621 10615 10609 10604 10599 10595 10590 10586 10581 10576 10571 10567 10562 10558 10554 10551 10547 10544 10541 10539 10537 10535 10534 10533 10534 10535 10537 10540 10544 10549 10555 10561 10567 10574 10581 10589 10598 10609 10621 10629 10637 10646 10655 10663 10671 10679 10687 10692 10696 10701 10705 10710 10713 10717 10720 10722 10725 10724 10724 10734 10738 10737 10738 10738 10739 10740 10740 10741 10741 10742 10742 10743
10703 10700 10697 10694 10691 10687 10684 10679 10674 10668 10661 10655 10648 10641 10635 10628 10623 10618 10612 10607 10602 10598 10593 10589 10583 10578 10573 10568 10563 10559 10555 10552 10548 10545 10542 10540 10538 10536 10535 10534 10534 10535 10537 10540 10544 10549 10554 10560 10566 10572 10580 10588 10598 10609 10619 10628 10637 10646 10654 10662 10670 10679 10685 10689 10694 10699 10704 10708 10711 10715 10717 10717 10720 10722 10725 10732 10734 10733 10733 10734 10735 10736 10737 10738 10737 10738 10739 10739
10701 10699 10695 10692 10689 10686 10683 10679 10674 10668 10662 10656 10649 10643 10636 10630 10625 10621 10616 10610 10605 10601 10597 10591 10585 10580 10575 10570 10566 10562 10557 10554 10551 10548 10545 10543 10540 10538 10537 10536 10537 10537 10539 10542 10545 10549 10554 10560 10566 10574 10581 10590 10600 10609 10618 10628 10637 10645 10653 10662 10670 10678 10683 10687 10692 10697 10702 10705 10709 10713 10713 10713 10718 10721 10724 10728 10730 10730 10730 10730 10732 10732 10733 10734 10734 10734 10735 10736
10699 10697 10694 10690 10687 10684 10681 10678 10674 10668 10662 10656 10650 10644 10638 10633 10628 10624 10619 10614 10609 10605 10599 10593 10588 10583 10578 10573 10569 10565 10560 10557 10554 10552 10550 10547 10544 10542 10540 10540 10540 10541 10542 10544 10547 10551 10556 10562 10568 10575 10582 10591 10601 10610 10619 10629 10637 10645 10653 10662 10670 10676 10681 10686 10691 10695 10698 10702 10707 10709 10708 10710 10716 10719 10721 10724 10725 10726 10726 10727 10728 10729 10729 10730 10730 10730 10731 10732
10697 10694 10692 10689 10685 10682 10679 10677 10673 10668 10662 10657 10651 10646 10640 10635 10631 10627 10623 10618 10612 10607 10602 10596 10592 10587 10583 10578 10573 10569 10566 10563 10560 10558 10555 10552 10549 10546 10544 10544 10545 10546 10547 10549 10551 10555 10559 10564 10570 10577 10584 10593 10602 10611 10621 10631 10639 10646 10654 10662 10668 10674 10679 10685 10689 10692 10695 10699 10703 10705 10704 10708 10714 10717 10718 10719 10721 10722 10723 10723 10725 10725 10726 10726 10726 10727 10728 10728
10695 10692 10690 10687 10684 10681 10678 10675 10672 10668 10663 10658 10653 10648 10642 10637 10633 10628 10624 10620 10615 10610 10605 10600 10597 10593 10589 10585 10580 10576 10573 10570 10567 10565 10562 10559 10556 10553 10551 10550 10550 10551 10553 10555 10557 10560 10564 10568 10574 10581 10589 10597 10606 10614 10623 10632 10640 10647 10655 10662 10667 10673 10677 10681 10686 10689 10693 10697 10701 10702 10701 10705 10711 10714 10714 10715 10717 10718 10718 10720 10721 10722 10722 10723 10723 10723 10724 10725
10692 10690 10688 10685 10682 10679 10676 10674 10671 10668 10663 10658 10654 10649 10644 10639 10635 10630 10626 10622 10618 10614 10609 10605 10602 10598 10595 10592 10588 10585 10582 10579 10576 10572 10569 10565 10563 10561 10559 10557 10557 10558 10559 10561 10563 10566 10569 10573 10579 10586 10593 10601 10609 10618 10626 10634 10642 10649 10656 10661 10666 10671 10674 10678 10683 10687 10691 10695 10698 10699 10698 10702 10708 10710 10710 10712 10714 10714 10715 10716 10718 10719 10719 10719 10719 10720 10720 10721
10690 10688 10686 10683 10680 10677 10675 10672 10670 10667 10664 10659 10654 10650 10646 10641 10637 10632 10628 10625 10622 10618 10613 10610 10607 10603 10600 10598 10595 10592 10589 10586 10583 10580 10577 10573 10571 10569 10567 10566 10565 10566 10567 10568 10570 10573 10576 10580 10585 10591 10599 10607 10614 10622 10629 10637 10644 10650 10655 10661 10665 10669 10672 10678 10682 10685 10690 10693 10696 10697 10696 10699 10704 10706 10707 10709 10710 10711 10711 10712 10714 10715 10716 10716 10716 10716 10716 10716
10687 10685 10684 10681 10679 10676 10673 10670 10668 10666 10663 10660 10655 10651 10647 10643 10639 10634 10630 10627 10624 10621 10617 10614 10611 10607 10605 10603 10600 10598 10595 10592 10590 10587 10584 10581 10579 10578 10577 10575 10574 10575 10576 10577 10579 10582 10585 10590 10594 10600 10606 10613 10620 10626 10633 10639 10645 10650 10655 10660 10665 10668 10672 10677 10681 10684 10688 10690 10693 10695 10694 10695 10699 10702 10704 10706 10707 10707 10706 10708 10710 10710 10711 10712 10712 10713 10712 10713
10684 10683 10681 10679 10677 10675 10672 10669 10666 10664 10663 10660 10656 10652 10648 10645 10641 10636 10632 10629 10627 10624 10620 10617 10615 10612 10609 10607 10605 10603 10601 10599 10596 10594 10591 10589 10588 10587 10586 10585 10583 10583 10584 10586 10589 10591 10595 10599 10603 10608 10613 10619 10625 10630 10636 10641 10646 10650 10655 10660 10664 10668 10673 10677 10680 10683 10686 10688 10690 10692 10691 10691 10694 10698 10700 10702 10703 10703 10703 10704 10705 10706 10708 10708 10709 10709 10709 10709
10681 10680 10678 10677 10675 10673 10671 10668 10664 10662 10661 10659 10656 10652 10649 10646 10642 10638 10635 10631 10629 10626 10623 10620 10618 10615 10613 10611 10609 10607 10605 10604 10602 10601 10599 10597 10596 10596 10596 10594 10593 10592 10592 10593 10596 10600 10603 10606 10610 10613 10618 10623 10628 10633 10638 10642 10646 10651 10655 10660 10664 10668 10673 10676 10678 10682 10684 10685 10687 10690 10689 10687 10689 10694 10695 10697 10699 10700 10700 10701 10701 10702 10703 10704 10705 10706 10705 10705
10678 10677 10675 10674 10672 10670 10669 10666 10664 10661 10659 10658 10656 10653 10649 10646 10643 10640 10636 10633 10630 10628 10626 10623 10620 10618 10616 10614 10613 10611 10609 10608 10607 10606 10605 10604 10603 10602 10603 10602 10602 10601 10601 10602 10603 10606 10609 10613 10616 10619 10622 10626 10630 10634 10639 10643 10647 10652 10656 10660 10664 10668 10671 10674 10676 10680 10682 10683 10684 10687 10686 10683 10685 10689 10690 10692 10696 10697 10698 10699 10699 10699 10699 10700 10701 10701 10701 10701
10675 10674 10673 10671 10670 10668 10666 10664 10663 10660 10657 10655 10654 10653 10649 10646 10644 10641 10638 10635 10632 10629 10627 10625 10623 10621 10619 10617 10615 10614 10613 10611 10611 10610 10609 10609 10608 10608 10608 10608 10609 10609 10610 10611 10611 10612 10614 10617 10620 10623 10627 10630 10633 10637 10640 10644 10648 10653 10656 10659 10663 10666 10669 10671 10673 10677 10679 10680 10681 10683 10683 10680 10681 10685 10685 10688 10693 10694 10694 10696 10696 10695 10696 10696 10697 10697 10697 10696
10671 10670 10669 10668 10667 10666 10663 10661 10660 10659 10656 10653 10652 10651 10649 10646 10643 10641 10639 10636 10633 10631 10629 10627 10625 10622 10621 10619 10618 10616 10615 10614 10614 10613 10613 10613 10613 10613 10612 10612 10614 10614 10615 10617 10618 10618 10618 10621 10624 10627 10630 10633 10636 10639 10642 10645 10649 10652 10655 10657 10661 10664 10667 10669 10671 10674 10675 10677 10678 10680 10681 10677 10677 10680 10680 10683 10689 10690 10690 10692 10692 10692 10693 10693 10693 10693 10692 10691
10668 10667 10666 10665 10664 10663 10661 10659 10657 10656 10655 10652 10650 10649 10648 10646 10643 10641 10639 10637 10634 10631 10629 10628 10626 10624 10622 10621 10619 10618 10617 10616 10616 10615 10615 10615 10616 10616 10616 10616 10617 10618 10619 10620 10622 10623 10623 10625 10627 10630 10633 10635 10638 10640 10642 10646 10649 10651 10653 10656 10660 10663 10665 10667 10669 10671 10672 10674 10675 10676 10678 10675 10673 10675 10674 10678 10683 10684 10686 10687 10687 10688 10689 10689 10689 10688 10687 10686
10664 10663 10662 10661 10661 10660 10658 10656 10655 10654 10653 10651 10649 10647 10645 10644 10643 10640 10638 10637 10635 10632 10630 10628 10626 10625 10624 10622 10621 10620 10619 10618 10617 10617 10617 10617 10617 10618 10619 10619 10619 10620 10621 10622 10624 10625 10626 10628 10629 10631 10634 10636 10639 10641 10643 10646 10648 10650 10652 10655 10658 10660 10662 10664 10665 10667 10668 10671 10671 10671 10674 10674 10671 10669 10668 10672 10677 10678 10681 10683 10682 10683 10685 10685 10684 10682 10682 10681
10661 10660 10659 10657 10657 10656 10655 10654 10652 10651 10650 10649 10647 10645 10644 10642 10641 10639 10637 10636 10634 10632 10630 10628 10627 10625 10624 10623 10622 10621 10620 10619 10618 10618 10618 10617 10618 10619 10620 10621 10622 10622 10622 10623 10625 10626 10627 10629 10630 10632 10634 10635 10638 10640 10643 10645 10646 10648 10650 10653 10655 10656 10658 10659 10661 10663 10664 10668 10667 10666 10669 10672 10671 10664 10659 10666 10671 10672 10677 10678 10677 10678 10680 10679 10678 10677 10676 10675
10657 10656 10655 10654 10652 10652 10652 10651 10650 10648 10647 10646 10645 10644 10642 10641 10639 10637 10635 10634 10632 10631 10630 10628 10627 10625 10623 10622 10621 10621 10620 10619 10619 10618 10618 10618 10618 10619 10619 10620 10621 10623 10623 10624 10625 10626 10628 10629 10631 10632 10633 10634 10636 10639 10641 10642 10644 10645 10648 10650 10650 10652 10654 10656 10658 10659 10662 10665 10662 10661 10665 10669 10671 10662 10655 10661 10665 10667 10671 10672 10672 10674 10674 10673 10671 10671 10670 10669
10652 10652 10651 10650 10649 10648 10647 10647 10647 10645 10644 10644 10643 10642 10640 10639 10637 10635 10633 10631 10630 10630 10628 10627 10626 10625 10623 10622 10621 10620 10619 10619 10618 10618 10618 10618 10618 10618 10619 10620 10620 10622 10622 10623 10625 10626 10627 10628 10630 10631 10632 10633 10635 10637 10638 10640 10641 10642 10644 10646 10647 10649 10651 10653 10655 10656 10659 10661 10657 10657 10660 10665 10667 10658 10653 10659 10661 10662 10666 10666 10666 10669 10668 10666 10664 10664 10663 10663
10647 10646 10646 10645 10645 10644 10643 10643 10643 10642 10641 10641 10640 10639 10637 10636 10635 10634 10632 10630 10629 10628 10627 10625 10625 10624 10623 10621 10620 10619 10618 10618 10618 10617 10617 10617 10618 10618 10618 10619 10620 10620 10621 10622 10623 10625 10626 10627 10627 10629 10630 10632 10633 10634 10636 10637 10637 10639 10641 10643 10645 10647 10648 10649 10651 10652 10655 10656 10654 10654 10655 10659 10661 10653 10650 10656 10657 10658 10661 10660 10661 10663 10662 10659 10657 10657 10657 10657
10641 10641 10641 10640 10640 10639 10639 10639 10639 10638 10638 10638 10637 10636 10635 10633 10632 10632 10631 10628 10627 10626 10625 10623 10622 10622 10621 10620 10619 10618 10617 10617 10616 10616 10616 10616 10617 10617 10617 10618 10618 10619 10620 10620 10621 10623 10624 10624 10625 10627 10628 10629 10631 10632 10633 10634 10635 10636 10638 10640 10642 10644 10644 10646 10647 10648 10650 10651 10651 10651 10651 10653 10653 10646 10646 10651 10652 10653 10655 10655 10656 10656 10655 10654 10652 10651 10651 10650
10636 10635 10635 10635 10634 10634 10634 10634 10634 10634 10634 10634 10633 10633 10632 10629 10629 10630 10628 10626 10626 10624 10622 10621 10620 10620 10619 10618 10618 10616 10616 10615 10615 10615 10615 10615 10615 10615 10615 10616 10616 10617 10617 10618 10619 10620 10621 10622 10623 10624 10625 10626 10628 10629 10630 10631 10632 10634 10635 10637 10639 10639 10640 10642 10643 10643 10645 10647 10647 10647 10647 10648 10645 10640 10642 10646 10648 10650 10650 10651 10651 10649 10649 10649 10648 10647 10645 10644
10630 10630 10630 10629 10628 10629 10629 10629 10630 10630 10631 10631 10630 10630 10628 10625 10626 10627 10625 10624 10623 10622 10621 10619 10618 10617 10617 10616 10615 10614 10614 10613 10613 10613 10613 10613 10613 10613 10613 10614 10614 10615 10615 10616 10617 10617 10618 10620 10620 10621 10622 10623 10624 10625 10626 10627 10628 10630 10631 10633 10634 10633 10635 10637 10639 10639 10640 10642 10643 10642 10643 10642 10638 10636 10638 10640 10643 10645 10646 10645 10644 10643 10642 10642 10643 10642 10641 10640
10623 10624 10624 10622 10623 10623 10623 10623 10624 10625 10626 10627 10627 10627 10623 10619 10622 10624 10621 10620 10620 10620 10619 10617 10615 10614 10614 10613 10613 10612 10611 10611 10611 10611 10610 10610 10611 10611 10611 10611 10612 10612 10613 10613 10614 10615 10616 10616 10617 10618 10619 10620 10621 10622 10622 10623 10624 10625 10626 10628 10628 10628 10631 10634 10634 10634 10634 10637 10638 10637 10636 10635 10632 10632 10633 10634 10637 10640 10641 10639 10636 10636 10637 10637 10637 10637 10636 10635
10617 10618 10617 10617 10617 10617 10617 10618 10619 10620 10621 10623 10624 10622 10616 10614 10618 10619 10617 10617 10616 10616 10616 10615 10613 10611 10611 10610 10610 10609 10609 10608 10608 10608 10608 10608 10608 10608 10608 10609 10609 10610 10610 10611 10611 10612 10612 10613 10614 10615 10615 10616 10617 10618 10619 10619 10620 10621 10621 10623 10623 10624 10627 10629 10629 10629 10629 10631 10633 10631 10630 10627 10625 10626 10626 10628 10632 10635 10634 10630 10628 10630 10632 10632 10632 10631 10631 10629
10610 10611 10610 10610 10611 10611 10611 10611 10613 10616 10617 10619 10621 10616 10609 10609 10613 10614 10614 10613 10611 10611 10612 10611 10610 10609 10608 10607 10606 10607 10606 10605 10605 10605 10604 10604 10604 10604 10605 10606 10606 10607 10607 10608 10608 10608 10609 10610 10610 10611 10611 10612 10613 10614 10614 10615 10615 10616 10617 10618 10618 10620 10621 10622 10623 10624 10623 10626 10627 10626 10623 10619 10617 10618 10620 10623 10629 10631 10626 10621 10622 10625 10627 10627 10626 10626 10625 10624
10602 10603 10604 10603 10604 10605 10604 10605 10608 10610 10612 10616 10617 10609 10603 10604 10607 10609 10610 10609 10607 10607 10607 10607 10607 10606 10605 10604 10603 10603 10603 10602 10602 10602 10601 10601 10601 10600 10602 10602 10603 10604 10604 10605 10605 10605 10606 10607 10607 10607 10608 10608 10609 10609 10609 10610 10611 10611 10612 10612 10613 10614 10615 10616 10618 10619 10618 10620 10622 10620 10617 10610 10608 10611 10614 10618 10624 10624 10617 10614 10617 10620 10620 10621 10621 10620 10621 10619
10593 10596 10597 10595 10596 10598 10597 10599 10603 10604 10608 10613 10610 10602 10598 10598 10600 10604 10606 10605 10604 10603 10602 10602 10603 10602 10601 10601 10599 10598 10599 10599 10598 10598 10598 10597 10597 10597 10598 10598 10598 10599 10600 10601 10601 10601 10602 10604 10603 10603 10604 10605 10604 10604 10604 10606 10607 10607 10607 10607 10607 10608 10610 10611 10612 10612 10613 10615 10616 10617 10610 10600 10601 10607 10610 10613 10615 10615 10612 10610 10611 10613 10613 10615 10616 10616 10616 10614
10584 10588 10589 10586 10588 10590 10589 10592 10597 10600 10604 10606 10602 10598 10595 10591 10592 10597 10600 10601 10600 10598 10597 10596 10597 10598 10597 10597 10597 10595 10594 10594 10594 10594 10593 10592 10593 10594 10594 10594 10594 10594 10595 10596 10596 10596 10598 10599 10599 10599 10600 10600 10599 10600 10601 10601 10602 10602 10602 10601 10602 10603 10605 10607 10607 10607 10609 10611 10612 10612 10604 10592 10595 10604 10604 10605 10607 10607 10607 10605 10605 10606 10607 10609 10610 10610 10611 10609
10575 10580 10582 10576 10577 10582 10582 10586 10592 10594 10598 10600 10597 10593 10590 10585 10585 10589 10593 10596 10595 10593 10592 10591 10591 10591 10591 10592 10593 10592 10590 10589 10588 10589 10589 10588 10588 10590 10590 10589 10589 10590 10590 10590 10590 10592 10593 10594 10595 10594 10594 10595 10595 10596 10597 10597 10597 10597 10597 10597 10597 10598 10600 10602 10604 10603 10604 10606 10606 10607 10600 10586 10587 10596 10597 10598 10600 10599 10600 10599 10598 10600 10601 10603 10605 10604 10605 10605
10566 10573 10572 10566 10568 10573 10575 10581 10586 10586 10591 10594 10590 10586 10584 10580 10579 10581 10585 10588 10590 10589 10588 10586 10585 10585 10585 10586 10587 10587 10587 10585 10583 10583 10583 10583 10583 10585 10585 10585 10585 10585 10586 10586 10586 10587 10588 10588 10589 10589 10588 10589 10590 10590 10592 10591 10591 10591 10592 10592 10592 10594 10596 10597 10599 10598 10598 10600 10599 10601 10597 10582 10578 10587 10590 10591 10592 10591 10592 10592 10591 10594 10596 10597 10598 10598 10599 10599
10558 10562 10560 10557 10560 10563 10567 10574 10578 10579 10584 10586 10581 10579 10579 10576 10574 10575 10575 10579 10583 10583 10583 10581 10579 10579 10580 10580 10580 10582 10582 10581 10579 10578 10577 10577 10578 10579 10580 10580 10581 10581 10581 10581 10581 10581 10583 10583 10583 10583 10583 10583 10583 10584 10585 10585 10586 10586 10586 10586 10587 10589 10589 10590 10594 10592 10593 10596 10591 10593 10595 10578 10567 10579 10583 10582 10585 10584 10584 10585 10585 10589 10591 10591 10592 10593 10594 10593
10545 10548 10550 10551 10552 10554 10560 10567 10570 10571 10575 10575 10573 10573 10574 10572 10570 10568 10566 10569 10574 10576 10577 10576 10574 10573 10573 10573 10574 10575 10575 10576 10575 10573 10572 10572 10571 10572 10574 10576 10576 10576 10577 10577 10576 10577 10578 10578 10578 10578 10578 10577 10575 10577 10578 10578 10580 10580 10580 10580 10581 10582 10582 10584 10586 10586 10590 10590 10582 10587 10594 10573 10557 10570 10576 10574 10578 10578 10575 10577 10579 10583 10585 10586 10587 10588 10587 10586
10531 10536 10542 10543 10542 10546 10553 10557 10559 10561 10565 10565 10566 10567 10567 10566 10566 10561 10558 10561 10565 10568 10570 10570 10568 10568 10567 10567 10567 10567 10567 10569 10569 10568 10568 10566 10565 10565 10567 10570 10571 10571 10572 10573 10573 10573 10574 10574 10573 10572 10572 10571 10569 10569 10571 10571 10573 10574 10574 10574 10575 10575 10577 10578 10579 10582 10585 10581 10576 10583 10588 10569 10553 10560 10567 10568 10571 10570 10568 10570 10573 10577 10579 10580 10580 10579 10578 10579
10519 10525 10532 10533 10532 10537 10544 10546 10546 10551 10554 10554 10557 10559 10559 10559 10559 10554 10551 10555 10558 10559 10562 10564 10563 10563 10562 10559 10558 10558 10559 10561 10563 10564 10562 10559 10559 10560 10561 10563 10565 10565 10567 10568 10568 10569 10569 10569 10568 10566 10566 10566 10563 10563 10566 10565 10566 10569 10568 10568 10569 10569 10571 10571 10574 10577 10573 10571 10577 10577 10572 10566 10557 10551 10554 10560 10562 10561 10561 10563 10567 10571 10572 10571 10571 10570 10570 10570
10508 10514 10522 10523 10520 10525 10533 10534 10536 10542 10543 10541 10545 10551 10550 10551 10551 10547 10547 10550 10550 10549 10552 10556 10557 10557 10555 10551 10550 10551 10551 10552 10557 10557 10554 10552 10553 10555 10555 10556 10558 10560 10561 10562 10562 10563 10564 10564 10562 10560 10561 10560 10558 10559 10560 10560 10561 10562 10562 10563 10563 10563 10564 10566 10568 10567 10562 10565 10573 10565 10557 10565 10562 10547 10543 10548 10551 10554 10556 10557 10560 10562 10562 10562 10562 10562 10561 10560
10499 10504 10509 10509 10508 10514 10522 10525 10525 10527 10528 10529 10535 10542 10543 10543 10543 10543 10543 10541 10540 10541 10544 10548 10550 10548 10544 10543 10544 10547 10545 10545 10549 10549 10545 10545 10547 10549 10551 10550 10551 10554 10554 10555 10556 10556 10558 10559 10555 10554 10556 10555 10553 10553 10554 10555 10557 10557 10557 10557 10556 10556 10558 10560 10560 10557 10554 10559 10564 10556 10553 10561 10559 10546 10538 10536 10538 10547 10552 10551 10552 10553 10553 10555 10555 10554 10553 10552
10488 10493 10495 10495 10498 10504 10509 10511 10509 10512 10517 10519 10525 10534 10538 10537 10536 10536 10534 10531 10532 10535 10534 10538 10542 10536 10532 10535 10538 10541 10541 10538 10539 10539 10536 10537 10540 10542 10545 10545 10545 10547 10547 10549 10550 10549 10552 10553 10549 10547 10551 10551 10547 10546 10548 10550 10552 10553 10553 10552 10552 10552 10551 10550 10551 10549 10548 10553 10556 10552 10551 10554 10550 10542 10535 10530 10531 10538 10542 10543 10545 10546 10547 10548 10548 10547 10547 10547
10476 10481 10481 10479 10486 10493 10494 10495 10496 10501 10506 10507 10515 10528 10530 10527 10528 10527 10525 10524 10525 10524 10523 10528 10531 10523 10520 10527 10533 10537 10537 10531 10528 10529 10527 10530 10534 10534 10537 10540 10540 10541 10541 10541 10543 10543 10545 10547 10543 10540 10545 10546 10541 10539 10542 10544 10546 10549 10551 10550 10549 10546 10542 10541 10542 10541 10542 10546 10546 10544 10548 10548 10540 10533 10532 10532 10529 10528 10532 10536 10538 10539 10540 10540 10541 10541 10541 10542
10461 10466 10465 10464 10475 10481 10480 10482 10485 10487 10492 10499 10512 10520 10516 10515 10519 10515 10512 10516 10515 10514 10516 10518 10517 10512 10511 10519 10528 10531 10526 10519 10519 10520 10519 10524 10529 10528 10529 10532 10532 10534 10535 10533 10535 10536 10536 10539 10537 10533 10538 10541 10534 10531 10535 10537 10539 10547 10551 10546 10540 10536 10534 10535 10536 10535 10535 10536 10537 10539 10543 10541 10530 10525 10530 10530 10525 10523 10526 10529 10531 10531 10531 10532 10534 10534 10535 10536
10447 10452 10453 10452 10458 10463 10465 10470 10471 10473 10484 10497 10503 10501 10499 10504 10506 10501 10502 10510 10509 10506 10508 10507 10502 10501 10504 10513 10521 10518 10508 10507 10513 10515 10514 10517 10521 10521 10523 10525 10525 10526 10527 10526 10528 10528 10527 10530 10530 10527 10532 10536 10528 10524 10527 10528 10535 10548 10549 10537 10528 10527 10528 10529 10531 10530 10527 10527 10531 10534 10533 10529 10524 10523 10524 10522 10519 10521 10524 10524 10524 10523 10522 10524 10528 10528 10528 10528